Weather reports worldwide

Advertisment
Colmar, France (7197): temperature & dewpoint: 13.01.2021 05:00:00 - 19.01.2021 05:00:00 (CET)Colmar, France (7197): temperature 5cm: 13.01.2021 05:00:00 - 19.01.2021 05:00:00 (CET)Colmar, France (7197): temperature -20cm: 13.01.2021 05:00:00 - 19.01.2021 05:00:00 (CET)Colmar, France (7197): wind speed & gusts: 13.01.2021 05:00:00 - 19.01.2021 05:00:00 (CET)Colmar, France (7197): wind direction: 13.01.2021 05:00:00 - 19.01.2021 05:00:00 (CET)Colmar, France (7197): reduced air pressure: 13.01.2021 05:00:00 - 19.01.2021 05:00:00 (CET)Colmar, France (7197): visibility: 13.01.2021 05:00:00 - 19.01.2021 05:00:00 (CET)Colmar, France (7197): sunshine duration: 13.01.2021 05:00:00 - 19.01.2021 05:00:00 (CET)Colmar, France (7197): precipitation: 13.01.2021 05:00:00 - 19.01.2021 05:00:00 (CET)
Date & Time tt [°C] td [°C] tt 5cm [°C] tt -20cm [°C] ff [km/h] ff [kn] fx [km/h] fx [kn] dd ppp [hPa] vv [km] sd [min] rr [mm]
19.01.2021 05:00:00 -0,5 -3,0 -7,0 1,2 15 8 26 14 S 1024,1 20 0 0,0
19.01.2021 04:00:00 -0,7 -3,4 -4,8 1,2 3 2 19 10 S 1025,0 20 0 0,0
19.01.2021 03:00:00 -0,8 -3,2 -6,0 1,2 9 5 20 11 SSW 1025,7 20 0 0,0
19.01.2021 02:00:00 -0,1 -2,6 -2,6 1,2 8 4 23 12 S 1025,9 20 0 0,0
19.01.2021 01:00:00 -0,2 -2,3 -2,0 1,2 12 6 27 15 SSE 1026,6 20 0 0,0
19.01.2021 00:00:00 0,7 -1,2 -3,5 1,2 16 9 29 16 S 1027,0 20 0 0,0
18.01.2021 23:00:00 0,6 -0,9 -2,8 1,2 11 6 19 10 S 1027,4 20 0 0,0
18.01.2021 22:00:00 0,5 -0,5 -2,8 1,2 10 5 14 8 S 1027,9 13 0 0,0
18.01.2021 21:00:00 0,9 -0,1 -1,3 1,2 4 2 14 8 S 1028,3 17 0 0,0
18.01.2021 20:00:00 1,5 0,2 -0,3 1,2 9 5 14 7 S 1028,4 18 0 0,0
18.01.2021 19:00:00 1,7 -0,2 -0,1 1,2 8 4 16 9 S 1028,2 20 0 0,0
18.01.2021 18:00:00 1,7 -0,2 -0,1 1,2 7 4 20 11 S 1028,1 20 0 0,0
18.01.2021 17:00:00 2,3 0,4 0,6 1,2 13 7 23 12 SSW 1027,9 20 42 0,0
18.01.2021 16:00:00 2,8 0,4 1,5 1,2 13 7 23 13 SSW 1027,6 20 46 0,0
18.01.2021 15:00:00 3,2 0,4 2,0 1,2 14 8 21 12 SSW 1028,1 20 11 0,0
18.01.2021 14:00:00 3,6 0,5 2,6 1,2 13 7 20 11 SSW 1028,0 20 20 0,0
18.01.2021 13:00:00 3,4 0,4 2,8 1,2 12 7 18 10 SSW 1028,5 20 19 0,0
18.01.2021 12:00:00 3,3 0,5 2,4 1,2 8 5 19 10 SSW 1029,1 20 0 0,0
18.01.2021 11:00:00 2,6 0,8 0,9 1,2 9 5 14 8 SSW 1029,5 20 0 0,0
18.01.2021 10:00:00 2,0 0,8 -0,3 1,2 6 3 16 9 S 1029,4 20 0 0,0
18.01.2021 09:00:00 0,8 0,2 -0,5 1,2 6 3 9 5 SSE 1029,3 16 0 0,0
18.01.2021 08:00:00 0,8 -0,1 -0,3 1,2 0 0 16 9 N 1028,9 19 0 0,0
18.01.2021 07:00:00 0,8 0,4 -2,4 1,2 8 4 14 7 S 1028,4 19 0 0,0
18.01.2021 06:00:00 -1,0 -1,3 -4,0 1,2 3 1 8 5 WNW 1028,6 10 0 0,0
18.01.2021 05:00:00 -0,9 -1,0 -5,9 1,2 7 4 10 5 SSW 1028,3 9 0 0,0
18.01.2021 04:00:00 -0,3 -0,6 -5,3 1,2 7 4 12 6 S 1028,3 13 0 0,0
18.01.2021 03:00:00 0,2 -0,2 -2,8 1,2 7 4 9 5 SE 1028,0 9 0 0,0
18.01.2021 02:00:00 0,7 0,1 -0,4 1,2 7 4 15 8 SSE 1027,7 16 0 0,0
18.01.2021 01:00:00 0,2 -0,2 -0,2 1,2 7 4 11 6 SSW 1027,6 10 0 0,0
18.01.2021 00:00:00 0,6 0,2 0,1 1,2 9 5 13 7 SSW 1027,5 12 0 0,0
17.01.2021 23:00:00 1,3 0,7 -0,1 1,2 8 4 14 8 S 1027,3 13 0 0,0
17.01.2021 22:00:00 1,0 0,9 -0,2 1,2 7 4 10 6 S 1027,1 11 0 0,0
17.01.2021 21:00:00 0,5 0,1 0,0 1,2 5 3 13 7 SW 1026,7 9 0 0,0
17.01.2021 20:00:00 1,4 1,0 0,1 1,2 2 1 10 5 SE 1026,3 15 0 0,0
17.01.2021 19:00:00 1,6 1,0 0,1 1,2 5 3 9 5 SE 1025,6 20 0 0,0
17.01.2021 18:00:00 1,7 1,0 0,1 1,2 5 3 10 5 SSE 1024,7 20 0 0,0
17.01.2021 17:00:00 2,1 1,1 0,1 1,2 4 2 15 8 S 1023,7 20 8 0,0
17.01.2021 16:00:00 2,5 0,9 0,1 1,2 11 6 16 9 S 1022,5 20 7 0,0
17.01.2021 15:00:00 2,5 0,9 0,1 1,2 9 5 13 7 S 1021,3 20 0 0,0
17.01.2021 14:00:00 2,6 1,0 0,1 1,2 6 3 14 8 S 1020,5 20 0 0,0
17.01.2021 13:00:00 2,3 0,8 0,1 1,2 9 5 16 9 S 1020,6 20 0 0,0
17.01.2021 12:00:00 2,0 0,7 0,1 1,2 8 5 16 8 S 1020,7 20 0 0,0
17.01.2021 11:00:00 1,8 0,2 -0,3 1,2 7 4 14 8 SSW 1020,6 20 0 0,0
17.01.2021 10:00:00 -0,4 -1,4 -0,3 1,2 2 1 7 4 S 1020,1 9 0 0,0
17.01.2021 09:00:00 0,6 -0,6 -0,2 1,2 5 3 8 4 S 1019,4 20 0 0,0
17.01.2021 08:00:00 0,9 -0,4 -0,4 1,2 4 2 18 10 S 1018,8 20 0 0,0
17.01.2021 07:00:00 1,0 -0,3 -0,6 1,2 10 5 18 10 S 1018,2 20 0 0,0
17.01.2021 06:00:00 0,9 -0,6 -0,8 1,2 9 5 19 10 S 1018,1 20 0 0,0
17.01.2021 05:00:00 0,7 -0,9 -1,2 1,2 12 7 19 10 SSW 1017,8 20 0 0,0
17.01.2021 04:00:00 -0,3 -1,3 -1,3 1,2 0 0 0 0 N 1018,2 19 0 0,0
17.01.2021 03:00:00 -0,6 -1,7 -1,5 1,2 0 0 0 0 N 1018,4 15 0 0,0
17.01.2021 02:00:00 -0,7 -2,0 -1,7 1,2 0 0 0 0 N 1018,4 16 0 0,0
17.01.2021 01:00:00 -1,1 -2,1 -1,8 1,2 0 0 0 0 N 1019,1 12 0 0,0
17.01.2021 00:00:00 -1,5 -2,5 -1,9 1,2 0 0 0 0 N 1020,2 11 0 0,0
16.01.2021 23:00:00 -2,0 -2,6 -2,1 1,2 0 0 0 0 N 1021,1 3,7 0 0,2
16.01.2021 22:00:00 -2,1 -2,7 -2,3 1,2 0 0 0 0 N 1022,3 4,1 0 0,0
16.01.2021 21:00:00 -2,0 -2,8 -2,6 1,1 0 0 0 0 N 1023,2 3,5 0 0,0
16.01.2021 20:00:00 -1,8 -3,4 -2,9 1,2 0 0 0 0 N 1024,2 11 0 0,0
16.01.2021 19:00:00 -2,0 -3,7 -3,1 1,2 0 0 0 0 N 1025,0 13 0 0,0
16.01.2021 18:00:00 -2,3 -4,0 -3,2 1,2 0 0 0 0 N 1025,9 14 0 0,0
16.01.2021 17:00:00 -2,7 -3,8 -3,1 1,2 0 0 0 0 N 1026,6 10 0 0,0
16.01.2021 16:00:00 -2,5 -3,8 -2,5 1,2 0 0 0 0 N 1026,9 9 0 0,0
16.01.2021 15:00:00 -2,6 -4,0 -2,4 1,2 0 0 0 0 N 1027,1 10 0 0,0
16.01.2021 14:00:00 -2,7 -4,3 -2,2 1,2 0 0 0 0 N 1028,0 10 0 0,0
16.01.2021 13:00:00 -2,6 -4,2 -1,9 1,1 0 0 0 0 N 1029,0 11 0 0,0
16.01.2021 12:00:00 -2,4 -4,0 -2,0 1,1 0 0 0 0 N 1029,5 11 0 0,0
16.01.2021 11:00:00 -2,5 -3,3 -2,5 1,1 0 0 0 0 N 1030,2 8 0 0,0
16.01.2021 10:00:00 -3,1 -3,6 -3,0 1,1 0 0 0 0 N 1030,5 7 0 0,0
16.01.2021 09:00:00 -3,6 -3,9 -3,4 1,1 0 0 0 0 N 1030,6 4,4 0 0,0
16.01.2021 08:00:00 -3,7 -4,1 -3,7 1,1 0 0 0 0 N 1030,3 4,3 0 0,0
16.01.2021 07:00:00 -4,0 -4,4 -4,1 1,1 0 0 0 0 N 1030,3 4,2 0 0,0
16.01.2021 06:00:00 -4,6 -5,0 -4,7 1,1 0 0 0 0 N 1030,6 4,6 0 0,0
16.01.2021 05:00:00 -5,7 -6,2 -5,2 1,1 0 0 0 0 N 1030,6 5 0 0,0
16.01.2021 04:00:00 -6,7 -7,4 -5,9 1,1 0 0 0 0 N 1030,9 7 0 0,0
16.01.2021 03:00:00 -7,4 -8,1 -7,3 1,1 0 0 0 0 N 1031,0 3,6 0 0,0
16.01.2021 02:00:00 -8,5 -9,2 -8,5 1,1 0 0 0 0 N 1030,9 0,5 0 0,0
16.01.2021 01:00:00 -12,1 -13,1 -9,1 1,1 0 0 0 0 N 1031,4 0,1 0 0,0
16.01.2021 00:00:00 -10,0 -11,1 -9,2 1,1 0 0 0 0 N 1031,2 0,1 0 0,0
15.01.2021 23:00:00 -9,4 -10,6 -8,6 1,1 0 0 0 0 N 1030,7 7 0 0,0
15.01.2021 22:00:00 -11,3 -11,9 -7,8 1,1 0 0 0 0 N 1030,7 0,1 0 0,0
15.01.2021 21:00:00 -5,1 -6,1 -6,0 1,0 0 0 0 0 N 1029,6 7 0 0,0
15.01.2021 20:00:00 -5,4 -6,9 -5,0 1,0 0 0 0 0 N 1029,5 9 0 0,0
15.01.2021 19:00:00 -4,9 -5,4 -5,0 1,1 0 0 0 0 N 1028,7 9 0 0,0
15.01.2021 18:00:00 -5,1 -5,8 -4,6 1,1 0 0 0 0 N 1028,1 9 0 0,0
15.01.2021 17:00:00 -3,5 -4,8 -3,8 1,1 0 0 0 0 N 1027,2 10 37 0,0
15.01.2021 16:00:00 -1,0 -2,6 -2,9 1,0 0 0 0 0 N 1025,9 12 54 0,0
15.01.2021 15:00:00 -2,0 -3,3 -2,8 1,1 0 0 0 0 N 1025,1 16 4 0,0
15.01.2021 14:00:00 -0,8 -2,1 -1,4 1,0 0 0 0 0 N 1024,3 18 9 0,0
15.01.2021 13:00:00 -0,9 -2,0 -1,5 1,0 0 0 0 0 N 1024,0 20 5 0,0
15.01.2021 12:00:00 -1,4 -2,1 -1,5 1,0 0 0 0 0 N 1023,4 20 0 0,0
15.01.2021 11:00:00 -1,5 -1,9 -1,4 1,0 0 0 0 0 N 1023,0 4,0 0 0,2
15.01.2021 10:00:00 -0,9 -1,2 -0,8 1,0 0 0 0 0 N 1021,7 2,1 0 0,7
15.01.2021 09:00:00 -0,5 -0,6 -0,4 1,0 0 0 0 0 N 1020,5 1,8 0 1,0
15.01.2021 08:00:00 0,0 0,0 0,0 1,0 0 0 0 0 N 1019,6 1,6 0 1,6
15.01.2021 07:00:00 0,1 0,1 0,0 1,0 0 0 0 0 N 1018,6 1,4 0 1,2
15.01.2021 06:00:00 0,1 0,1 0,0 1,0 0 0 0 0 N 1017,7 1,6 0 1,0
15.01.2021 05:00:00 0,1 0,1 0,1 1,0 0 0 0 0 N 1017,3 2,0 0 0,4
15.01.2021 04:00:00 0,1 0,1 0,1 1,0 0 0 0 0 N 1016,8 2,7 0 0,2
15.01.2021 03:00:00 0,0 -0,1 0,1 1,0 0 0 0 0 N 1016,5 2,4 0 0,2
15.01.2021 02:00:00 0,0 -0,1 0,1 1,0 0 0 0 0 N 1016,1 2,7 0 0,2
15.01.2021 01:00:00 0,0 -0,1 0,1 1,0 0 0 0 0 N 1016,0 2,9 0 0,2
15.01.2021 00:00:00 -0,1 -0,2 0,1 1,0 0 0 0 0 N 1015,9 1,7 0 0,6
14.01.2021 23:00:00 -0,1 -0,2 0,1 1,0 0 0 0 0 N 1015,9 1,7 0 0,9
14.01.2021 22:00:00 -0,1 -0,2 0,1 1,0 0 0 0 0 N 1016,3 1,0 0 1,6
14.01.2021 21:00:00 -0,1 -0,2 0,0 1,0 0 0 0 0 N 1016,6 1,3 0 1,4
14.01.2021 20:00:00 -0,1 -0,2 0,1 1,0 0 0 0 0 N 1017,2 1,6 0 0,8
14.01.2021 19:00:00 -0,1 -0,2 0,1 1,0 0 0 0 0 N 1017,8 1,5 0 0,8
14.01.2021 18:00:00 0,0 -0,1 0,1 1,0 0 0 4 2 N 1018,3 2,0 0 1,0
14.01.2021 17:00:00 0,1 0,0 0,1 1,0 3 2 6 4 N 1019,0 1,4 0 1,2
14.01.2021 16:00:00 0,2 0,1 0,1 1,0 5 3 9 5 N 1019,2 1,5 0 1,6
14.01.2021 15:00:00 0,4 0,3 0,1 1,0 4 2 9 5 N 1019,5 1,3 0 1,8
14.01.2021 14:00:00 0,4 0,1 0,2 1,0 5 3 12 7 N 1019,7 1,7 0 2,1
14.01.2021 13:00:00 0,5 0,2 0,1 1,0 6 3 11 6 N 1020,2 1,5 0 2,0
14.01.2021 12:00:00 0,6 0,3 0,1 1,0 0 0 0 0 N 1020,5 0,9 0 2,6
14.01.2021 11:00:00 0,6 0,2 0,1 0,9 0 0 0 0 N 1020,5 1,1 0 2,2
14.01.2021 10:00:00 0,5 0,4 0,1 0,9 0 0 3 1 N 1020,2 1,3 0 2,2
14.01.2021 09:00:00 0,3 0,2 0,1 0,9 0 0 2 1 N 1019,8 1,5 0 1,6
14.01.2021 08:00:00 0,3 0,0 0,1 0,9 0 0 6 4 N 1019,5 2,1 0 1,9
14.01.2021 07:00:00 0,7 0,3 0,1 0,9 5 3 16 9 ENE 1019,4 2,4 0 2,2
14.01.2021 06:00:00 2,5 1,9 2,1 0,9 10 5 25 14 NE 1018,7 18 0 1,8
14.01.2021 05:00:00 3,1 2,5 2,7 0,8 14 7 36 19 NNE 1018,0 7 0 0,2
14.01.2021 04:00:00 7,1 5,6 6,4 0,7 11 6 27 15 SW 1016,7 20 0 0,0
14.01.2021 03:00:00 7,1 5,7 6,4 0,6 17 9 26 14 SSW 1016,5 20 0 0,0
14.01.2021 02:00:00 7,1 6,0 5,9 0,6 15 8 23 12 SSW 1016,5 20 0 0,2
14.01.2021 01:00:00 6,8 5,9 5,9 0,6 17 9 29 16 SW 1016,7 20 0 0,4
14.01.2021 00:00:00 6,8 5,6 5,7 0,6 21 11 31 17 SSW 1016,7 20 0 0,0
13.01.2021 23:00:00 6,5 5,4 5,2 0,6 21 12 36 19 SW 1016,6 20 0 0,0
13.01.2021 22:00:00 5,9 5,0 4,5 0,6 21 11 33 18 SW 1016,6 20 0 0,2
13.01.2021 21:00:00 5,2 4,3 4,1 0,5 21 11 32 17 SW 1017,2 20 0 0,2
13.01.2021 20:00:00 4,9 3,9 3,8 0,5 21 12 38 21 SSW 1017,5 20 0 0,2
13.01.2021 19:00:00 4,9 3,4 3,9 0,6 25 14 42 23 SSW 1018,0 20 0 0,2
13.01.2021 18:00:00 4,8 3,5 4,0 0,5 21 11 46 25 SSW 1018,6 20 0 0,2
13.01.2021 17:00:00 5,5 3,3 4,4 0,5 26 14 42 23 SW 1019,2 20 0 0,0
13.01.2021 16:00:00 5,4 2,4 4,8 0,5 16 9 29 16 SSW 1019,5 20 0 0,0
13.01.2021 15:00:00 4,9 2,4 4,7 0,5 14 8 25 13 S 1020,1 20 0 0,0
13.01.2021 14:00:00 5,0 1,5 5,2 0,5 10 5 19 11 S 1020,7 20 0 0,0
13.01.2021 13:00:00 4,8 1,1 4,6 0,5 10 5 18 10 S 1021,7 20 2 0,0
13.01.2021 12:00:00 3,4 1,4 3,4 0,5 11 6 21 12 S 1022,6 20 7 0,0
13.01.2021 11:00:00 2,4 0,9 0,6 0,5 8 4 14 8 SSE 1023,1 20 4 0,0
13.01.2021 10:00:00 0,7 0,0 -1,2 0,5 9 5 13 7 S 1022,8 20 0 0,0
13.01.2021 09:00:00 -0,6 -0,9 -2,1 0,5 5 3 9 5 S 1022,8 17 0 0,0
13.01.2021 08:00:00 -0,8 -0,9 -3,2 0,5 5 3 7 4 S 1022,3 4,9 0 0,0
13.01.2021 07:00:00 0,3 0,2 -0,5 0,5 4 2 8 4 S 1021,9 4,1 0 0,0
13.01.2021 06:00:00 0,7 0,6 0,3 0,5 6 3 10 5 S 1021,5 5 0 0,0
13.01.2021 05:00:00 1,2 1,1 0,1 0,5 5 3 7 4 S 1021,1 9 0 0,0

tt = temperature
td = dewpoint
tt 5cm = temperature 5cm
tt -20cm = temperature -20cm
ff = wind speed
fx = gusts
dd = wind direction
ppp = reduced air pressure
vv = visibility
sd = sunshine duration
rr = precipitation

Next stations